Theta_e
273 274 274 273 273 272 272 272 273 273 273 272 271 272 270 273 273 274 275 275 276 277 277 277 278 279 278 278 280 281 281 284 287 288 292 296 302 309 310 311 311 311 313
271 273 273 272 272 271 271 271 272 272 272 272 272 271 270 272 273 273 273 274 274 276 276 275 276 277 277 277 277 279 280 281 282 284 288 293 304 301 305 307 306 307 309
269 270 273 271 270 270 269 271 272 272 271 268 271 271 272 272 271 270 271 272 273 274 275 275 276 276 276 276 276 279 278 277 281 283 284 287 290 288 300 302 301 302 302
270 268 270 268 270 270 269 270 271 271 270 268 264 264 266 267 268 268 270 270 272 272 274 275 275 275 276 275 276 277 277 278 277 281 286 286 285 286 286 296 299 300 301
270 270 270 272 271 272 267 265 266 268 268 263 263 260 262 263 266 267 267 268 269 271 273 274 273 274 274 275 275 276 276 277 277 278 279 281 284 287 286 286 295 297 301
270 271 272 272 268 267 267 267 267 266 266 264 262 261 257 259 263 264 264 266 267 269 271 272 272 272 273 273 274 275 276 276 277 278 279 279 281 282 284 284 287 289 296
271 271 270 270 270 269 267 267 267 267 264 264 263 260 258 256 255 261 263 263 265 267 267 269 270 270 272 273 274 274 275 276 276 277 278 280 280 284 284 284 284 287 294
273 272 271 270 271 272 269 268 266 264 265 262 264 262 261 259 259 259 260 262 263 265 266 267 267 269 270 272 273 273 274 276 277 277 278 279 280 282 284 285 284 283 287
272 272 271 269 269 269 269 268 268 267 265 265 264 263 260 260 259 259 257 262 262 265 266 265 266 268 269 271 272 272 273 274 276 277 278 278 280 282 284 286 286 285 283
272 271 270 269 268 268 267 266 266 265 264 265 263 264 262 261 261 260 259 259 261 260 262 263 265 266 268 270 271 272 274 274 274 277 277 278 279 281 282 284 286 286 285
271 269 268 268 267 263 264 263 262 262 262 264 261 259 261 262 262 261 261 260 260 261 261 262 264 266 267 269 270 271 273 274 275 276 277 278 280 280 282 284 285 285 286
270 268 267 266 265 263 261 262 260 258 259 256 255 259 261 261 258 259 261 263 261 261 261 262 263 265 266 268 269 270 272 273 274 276 277 278 281 281 284 285 285 285 286
268 264 262 264 264 262 260 260 258 259 256 252 253 256 257 256 258 258 259 261 262 262 260 262 262 264 265 267 268 270 271 274 276 277 279 282 283 282 284 286 286 286 288
268 266 262 263 263 263 261 259 259 257 255 253 253 256 257 256 256 256 257 258 259 260 261 261 261 263 265 266 268 271 273 275 278 281 282 281 281 282 283 285 286 287 286
268 268 267 265 263 263 260 260 258 255 254 254 254 257 257 255 255 256 256 257 257 259 259 260 261 263 264 268 269 272 273 276 278 280 281 280 282 285 285 285 286 288 286
271 270 270 269 267 263 262 263 261 257 253 253 257 256 255 255 256 256 256 256 257 257 257 258 259 261 265 271 275 277 275 276 278 278 279 279 282 282 285 287 288 288 287
267 269 269 269 267 263 264 260 257 253 252 251 254 254 254 255 256 256 255 257 257 255 257 258 259 260 262 271 276 278 275 275 276 276 277 278 280 282 282 284 286 288 290
262 262 260 261 256 252 253 252 252 250 250 251 253 255 255 256 257 256 256 256 255 257 259 259 260 260 263 273 275 277 274 273 274 276 277 277 278 280 282 282 284 285 287
258 255 255 252 251 252 250 251 252 252 252 256 256 257 255 256 256 257 257 258 255 258 258 260 260 261 262 271 275 274 272 272 273 275 277 277 279 282 284 282 282 283 285
253 254 254 251 254 254 250 253 253 253 256 259 258 258 257 257 257 257 259 257 253 259 261 261 261 264 264 269 273 274 272 271 271 274 276 280 280 283 284 281 281 281 283
255 254 253 253 253 253 251 254 253 255 258 260 260 260 260 259 258 257 256 259 259 260 259 260 261 261 263 264 273 276 273 271 272 273 275 277 281 282 283 284 282 282 285
257 256 255 255 257 256 255 253 254 258 259 258 258 259 258 259 262 260 261 261 259 259 259 259 260 263 264 269 272 275 277 277 273 274 275 276 280 282 283 283 283 285 286
256 255 254 255 257 255 255 253 256 259 258 256 257 257 259 261 262 260 260 261 261 261 259 260 261 262 265 266 272 275 275 277 275 276 277 280 281 281 279 279 281 283 282
258 258 257 257 257 257 261 258 258 259 255 255 256 257 257 260 261 260 261 260 259 260 260 260 260 262 264 267 268 268 270 275 275 276 276 277 277 276 275 275 275 277 284
260 260 259 259 259 259 259 259 261 256 256 255 255 256 258 256 258 260 259 259 261 263 263 262 264 266 265 266 272 274 273 274 276 277 273 269 267 267 268 269 271 273 282
258 258 258 258 257 258 258 259 259 256 253 254 257 257 259 258 259 259 258 264 267 269 270 271 270 269 272 273 274 276 276 277 278 272 265 264 265 265 266 267 268 271 277
Wind_Speed
6 5 4 4 5 6 6 5 5 7 7 5 4 2 3 3 3 7 9 11 11 11 11 8 9 10 10 11 11 12 14 8 12 9 10 8 13 10 10 7 6 7 7
7 5 5 3 4 3 3 4 5 6 7 5 4 3 3 3 2 6 8 11 11 11 11 10 9 10 9 10 11 13 12 6 11 7 9 8 6 8 9 7 7 9 5
10 6 7 6 4 2 3 3 3 4 4 3 4 4 2 2 4 10 9 11 11 12 11 10 9 9 8 8 9 11 13 9 9 10 5 6 5 14 4 7 6 8 4
5 4 6 4 5 6 5 4 4 3 4 4 3 4 4 5 4 6 7 8 9 10 10 10 9 9 7 8 9 9 9 8 10 8 5 9 9 5 10 7 13 7 10
9 9 8 7 6 7 6 4 3 3 3 4 3 3 4 1 3 5 9 8 8 8 10 10 9 8 7 8 9 11 9 8 8 8 8 10 8 9 9 12 10 13 9
9 8 7 7 5 4 5 4 4 2 3 3 4 6 5 5 6 6 7 7 7 6 7 11 8 8 8 9 8 9 10 9 9 9 8 9 7 8 8 8 14 14 16
10 8 9 8 8 7 6 5 4 3 2 3 4 3 3 3 3 5 5 8 7 7 8 9 9 8 9 10 9 9 10 9 9 10 9 9 11 10 10 11 13 11 11
11 12 12 10 8 9 7 5 4 2 2 2 3 2 2 2 3 4 5 5 6 7 10 9 9 10 10 10 9 8 8 9 8 12 11 10 10 11 10 11 11 14 10
14 13 9 9 8 7 7 7 5 3 2 2 2 2 3 4 4 6 4 5 6 6 7 9 10 10 10 10 10 7 10 9 10 10 12 11 10 11 11 11 9 10 11
11 9 9 8 6 6 5 6 5 5 4 4 4 3 3 4 4 4 6 7 7 4 7 8 8 10 10 10 9 9 10 10 9 9 11 12 11 12 11 11 11 9 11
11 8 7 6 6 3 6 5 4 5 5 4 3 2 4 5 5 5 6 7 5 6 6 7 9 10 11 11 10 11 12 12 12 12 13 15 15 11 11 11 11 11 10
8 7 7 7 7 7 5 6 5 6 6 4 3 3 4 5 5 6 7 6 7 6 7 7 8 9 10 10 10 12 13 13 14 15 15 16 12 17 14 11 15 13 11
7 5 3 7 7 6 6 7 6 7 4 3 2 5 6 5 7 7 6 7 7 8 7 7 7 9 10 11 11 12 13 15 16 17 16 16 15 17 14 14 13 13 10
6 6 5 7 7 7 7 6 6 4 3 3 3 6 6 6 6 6 7 7 7 8 8 7 8 9 10 12 12 13 15 16 16 16 15 16 16 17 18 16 17 14 12
5 6 6 7 6 6 6 5 4 4 4 4 3 7 6 6 6 7 6 7 7 7 7 8 9 9 8 9 11 13 16 17 17 16 16 17 21 30 26 15 15 15 12
4 5 7 6 8 8 7 5 5 5 4 3 6 5 6 6 7 7 7 7 8 7 6 8 8 10 8 20 23 21 15 17 17 16 16 16 23 22 29 31 32 26 17
9 9 7 7 6 6 5 6 5 2 3 3 5 6 6 7 7 7 6 7 8 5 8 9 8 10 11 23 25 26 14 15 15 17 17 16 14 22 19 25 31 26 29
8 9 7 6 6 4 4 3 3 2 1 4 6 6 6 7 7 6 7 7 5 7 9 10 10 10 11 24 26 27 16 14 16 17 17 18 19 18 22 20 20 20 17
4 4 4 3 4 4 2 3 3 2 2 6 6 6 5 6 6 7 8 7 6 8 8 9 10 11 13 24 27 24 14 14 16 17 17 18 20 24 32 22 21 19 19
3 4 5 3 4 5 2 2 4 3 5 5 6 6 6 6 7 8 9 6 4 10 8 11 10 16 16 22 25 22 11 14 13 16 17 27 25 32 33 22 19 20 19
5 3 4 3 4 4 1 4 3 5 5 6 5 5 6 7 7 8 4 9 9 10 10 11 10 11 14 15 25 26 13 11 14 13 14 13 30 34 36 34 20 19 22
6 6 4 4 6 3 2 3 5 6 6 5 5 6 6 6 7 8 9 9 8 10 10 11 11 9 11 19 21 25 26 26 15 15 13 16 32 37 38 32 34 36 32
4 3 2 4 5 4 1 3 6 6 6 5 6 6 8 9 9 9 9 9 9 9 9 9 11 10 9 9 22 26 29 28 18 13 24 37 36 35 29 33 33 33 15
4 3 4 4 6 4 8 6 7 6 5 7 8 8 8 11 7 8 8 8 8 9 10 10 11 11 10 9 8 11 13 21 17 21 17 23 28 30 25 23 18 13 13
4 6 5 7 9 8 9 9 10 4 7 6 7 8 7 7 9 8 8 8 10 13 12 11 11 10 11 10 22 22 14 13 17 24 13 12 12 13 11 12 14 13 14
5 6 7 8 9 9 10 11 9 5 6 7 8 7 8 8 8 8 10 17 24 26 27 27 21 11 24 29 30 30 30 29 29 14 10 12 12 13 13 13 15 14 19
Wind_Direction
179 161 136 102 91 50 45 31 24 14 15 5 358 356 358 341 10 11 1 3 357 358 357 356 355 356 358 350 349 349 344 338 352 325 330 301 267 249 250 245 247 245 234
177 171 154 121 84 74 39 39 31 29 25 11 350 329 305 310 351 8 1 1 355 356 356 353 354 354 347 348 352 356 348 331 355 340 297 326 326 23 290 263 248 250 245
180 188 185 170 128 160 186 127 94 65 45 352 359 344 335 324 3 3 357 351 345 349 347 349 351 350 347 345 342 349 354 335 332 348 311 320 330 340 308 308 294 280 254
179 197 195 155 178 200 196 136 103 83 70 26 30 42 46 12 354 333 329 331 339 338 344 349 350 344 341 337 337 345 339 334 325 332 334 319 308 316 310 316 320 284 261
184 195 189 187 202 180 180 160 118 81 64 56 55 64 34 344 316 330 332 335 332 331 340 349 344 339 334 329 326 330 327 325 312 314 312 307 293 262 261 287 324 314 301
188 196 192 189 197 199 159 153 125 111 68 58 41 49 40 346 345 341 338 331 320 324 333 341 334 331 326 322 319 318 319 314 308 301 298 293 293 299 292 297 297 298 306
179 184 183 190 186 188 184 165 139 118 87 56 35 31 359 341 297 309 316 320 322 327 327 329 329 323 315 313 311 311 309 306 296 294 295 289 284 282 282 279 282 283 292
184 191 192 196 194 185 180 178 148 125 69 45 353 350 323 287 280 272 295 296 295 303 308 314 313 307 307 308 307 303 299 297 295 287 285 286 284 282 276 269 287 294 282
190 194 190 197 193 180 183 180 173 164 172 220 253 263 251 273 272 287 264 272 275 296 314 304 305 304 302 305 305 299 297 293 294 289 286 284 280 280 275 267 259 273 294
194 196 198 194 198 194 180 177 172 193 206 218 212 236 242 252 267 268 274 272 275 268 292 299 302 306 304 302 304 302 296 295 288 284 284 285 284 283 282 277 271 258 266
199 203 200 197 195 179 185 186 189 202 221 220 224 250 281 282 279 269 274 268 272 286 289 295 305 306 305 308 302 297 296 295 294 287 280 280 279 277 273 275 270 264 256
213 208 200 193 191 202 200 205 206 209 222 225 236 262 272 271 272 276 283 291 291 286 283 292 300 302 297 299 300 301 301 295 294 289 286 280 281 278 276 272 267 262 260
213 215 208 207 203 206 220 216 212 222 222 216 234 265 268 281 278 281 287 292 291 291 285 289 285 297 301 304 303 296 292 290 294 289 275 297 295 296 292 285 274 268 265
217 215 224 223 216 215 215 226 232 206 212 208 227 259 265 265 269 277 280 283 281 287 288 287 288 294 299 304 301 296 292 288 290 292 294 300 292 291 296 295 291 276 266
229 230 233 230 226 230 230 227 228 207 194 214 232 253 267 269 277 281 280 279 278 280 282 293 293 294 295 301 304 297 293 294 294 295 300 298 295 296 295 294 294 290 272
303 255 243 238 230 226 224 218 218 225 170 215 248 267 283 286 278 277 277 284 287 288 284 289 286 293 293 303 309 306 301 299 297 298 298 295 299 296 297 300 296 293 290
333 328 302 265 246 218 193 204 205 159 185 235 267 277 278 282 279 276 285 284 283 279 288 285 282 284 289 304 308 310 302 300 298 295 293 293 294 299 294 296 293 291 284
3 358 347 353 360 352 52 99 89 107 262 278 275 273 267 270 279 285 281 278 259 276 286 286 284 283 288 302 309 308 305 297 292 289 288 289 290 288 296 295 292 286 289
313 291 301 305 330 3 8 45 352 310 293 279 275 272 261 279 284 284 279 276 276 284 273 278 284 281 287 298 305 309 297 294 293 291 287 288 286 297 297 298 294 293 285
256 298 324 313 14 351 16 14 311 323 292 280 274 271 273 273 279 276 284 278 240 279 279 281 274 278 290 293 300 302 291 295 294 290 287 290 298 298 301 296 292 288 289
322 352 8 359 299 329 91 326 325 308 275 282 284 286 282 280 272 275 264 279 281 280 280 278 276 273 273 281 294 298 297 292 290 290 294 295 299 300 297 294 288 284 285
339 350 16 338 321 337 52 346 319 280 288 288 296 291 278 282 291 281 288 284 279 280 284 283 284 275 272 278 289 296 300 298 297 289 294 292 294 299 301 301 295 289 284
301 291 318 309 314 314 257 294 277 288 285 297 296 291 296 298 295 289 292 298 292 285 284 284 284 286 279 274 283 299 299 297 293 295 297 303 305 303 303 294 290 288 274
312 312 323 314 300 297 310 273 288 300 303 301 297 294 294 297 302 296 287 290 292 289 283 279 277 280 277 274 290 281 282 287 297 296 292 301 305 301 293 297 290 280 257
326 325 317 316 313 313 304 299 302 291 294 288 287 288 288 281 284 278 283 279 275 272 275 265 262 282 295 289 287 298 296 297 301 311 310 310 304 300 299 294 292 286 277
315 317 315 311 302 300 297 297 294 279 279 293 292 286 294 292 279 281 288 283 295 299 297 297 293 292 294 298 296 297 301 307 313 312 313 300 299 298 302 302 296 290 284